Starlink 30158

operational
NORAD ID: 57438 Int'l Des: 2023-105 Owner: SPXS Country: US Constellation: starlink
LEOCIRCULAR

Über Starlink 30158

Beschreibung wird geladen...

Live-Position

3D-Globus wird geladen...

Nächste Überflüge

Höhenverlauf

Altitude vs Time

uPlot chart will show altitude changes over time

Zweizeiliger Elementsatz

1 57438U 23105J 26035.15541289 -.00000288 00000-0 -62632-5 0 9993
2 57438 43.0034 84.0807 0001489 270.9425 89.1247 15.02531755140517
Epoch: 4. Feb. 2026 • Age: 14 hours

Aktueller Status

Höhe 569.8 km
Geschwindigkeit 7.58 km/s
Subsatellitenpunkt -39.20°S, 21.29°W
Startdatum 24. Juli 2023
Alter 2.5 years
Typ internet

Technische Details

Klassifizierung Payload
Masse 730.00 kg
Trockenmasse 700.00 kg
Gesamtmasse 730.00 kg
Länge 0.30 m
Durchmesser 4.10 m
Spannweite 29.00 m
Form Box + pan
Hersteller SPXS
Bus-Typ Starlink V2M
Phasenstatus In Orbit
Besitzer/Staat SPXS/US

Große Konstellationen

Loading constellations...